| time (UTC) | temp C | wind direction | speed KPH | gust KPH | rain 1hr cm | rain 24hr cm | rain mn cm | humidity % | barometer mb |
| 20260906185913 | 26 | 152 | 0.0 | 0.0 | 0.00 | 0.08 | 0.03 | 66 | 1027.1 |
| 20260906184913 | 26 | 211 | 0.0 | 0.0 | 0.00 | 0.08 | 0.03 | 67 | 1027.4 |
| 20260906183915 | 25 | 201 | 0.0 | 0.0 | 0.00 | 0.08 | 0.03 | 67 | 1027.6 |
| 20260906182913 | 25 | 181 | 0.0 | 0.0 | 0.00 | 0.08 | 0.03 | 68 | 1027.6 |
| 20260906181012 | 25 | 172 | 0.0 | 0.0 | 0.00 | 0.08 | 0.03 | 70 | 1027.6 |
| 20260906180013 | 24 | 210 | 0.0 | 0.0 | 0.00 | 0.08 | 0.03 | 72 | 1028.0 |
| 20260906175111 | 24 | 204 | 0.0 | 0.0 | 0.00 | 0.08 | 0.03 | 74 | 1028.1 |
| 20260906174128 | 23 | 216 | 0.0 | 0.0 | 0.00 | 0.08 | 0.03 | 74 | 1028.1 |
| 20260906173211 | 24 | 154 | 0.0 | 0.0 | 0.00 | 0.08 | 0.03 | 75 | 1028.2 |
| 20260906172214 | 23 | 206 | 0.0 | 0.0 | 0.00 | 0.08 | 0.03 | 76 | 1028.4 |
| 20260906171213 | 23 | 158 | 0.0 | 0.0 | 0.00 | 0.08 | 0.03 | 75 | 1028.4 |
| 20260906170311 | 23 | 202 | 0.0 | 0.0 | 0.00 | 0.08 | 0.03 | 76 | 1028.5 |
| 20260906164410 | 23 | 212 | 0.0 | 0.0 | 0.00 | 0.08 | 0.03 | 77 | 1028.5 |
| 20260906163412 | 23 | 194 | 0.0 | 0.0 | 0.00 | 0.08 | 0.03 | 76 | 1028.5 |
| 20260906162511 | 23 | 200 | 0.0 | 0.0 | 0.00 | 0.08 | 0.03 | 77 | 1028.6 |
| 20260906161512 | 23 | 247 | 0.0 | 0.0 | 0.00 | 0.08 | 0.03 | 79 | 1028.7 |
| 20260906160513 | 22 | 192 | 0.0 | 0.0 | 0.00 | 0.08 | 0.03 | 81 | 1028.6 |
| 20260906155513 | 22 | 200 | 0.0 | 0.0 | 0.00 | 0.08 | 0.03 | 80 | 1028.5 |
| 20260906154512 | 21 | 172 | 0.0 | 0.0 | 0.00 | 0.10 | 0.03 | 80 | 1028.5 |
| 20260906153512 | 21 | 171 | 0.0 | 0.0 | 0.00 | 0.10 | 0.03 | 82 | 1028.6 |
| 20260906152511 | 21 | 218 | 0.0 | 0.0 | 0.00 | 0.10 | 0.03 | 83 | 1028.5 |
| 20260906151513 | 20 | 202 | 0.0 | 0.0 | 0.00 | 0.10 | 0.03 | 84 | 1028.7 |
| 20260906145613 | 20 | 136 | 0.0 | 0.0 | 0.00 | 0.10 | 0.03 | 85 | 1028.5 |
| 20260906144612 | 19 | 178 | 0.0 | 0.0 | 0.03 | 0.10 | 0.03 | 86 | 1028.5 |
| 20260906140811 | 18 | 202 | 0.0 | 0.0 | 0.03 | 0.10 | 0.03 | 85 | 1028.6 |
| 20260906132811 | 17 | 112 | 0.0 | 0.0 | 0.00 | 0.08 | 0.00 | 86 | 1028.9 |
| 20260906131812 | 18 | 112 | 0.0 | 0.0 | 0.00 | 0.08 | 0.00 | 86 | 1028.9 |
| 20260906130813 | 17 | 112 | 0.0 | 0.0 | 0.00 | 0.08 | 0.00 | 89 | 1029.3 |
| 20260906125811 | 17 | 112 | 0.0 | 0.0 | 0.00 | 0.08 | 0.00 | 89 | 1028.9 |
| 20260906124812 | 16 | 112 | 0.0 | 0.0 | 0.00 | 0.08 | 0.00 | 90 | 1028.7 |
| 20260906122812 | 15 | 112 | 0.0 | 0.0 | 0.00 | 0.08 | 0.00 | 92 | 1028.4 |
| 20260906121811 | 15 | 112 | 0.0 | 0.0 | 0.00 | 0.08 | 0.00 | 93 | 1028.3 |
| 20260906120812 | 14 | 112 | 0.0 | 0.0 | 0.00 | 0.08 | 0.00 | 93 | 1028.1 |
| 20260906115814 | 14 | 112 | 0.0 | 0.0 | 0.00 | 0.08 | 0.00 | 94 | 1028.0 |
| 20260906114810 | 14 | 112 | 0.0 | 0.0 | 0.00 | 0.10 | 0.00 | 93 | 1028.0 |
| 20260906113814 | 14 | 90 | 0.0 | 0.0 | 0.00 | 0.10 | 0.00 | 93 | 1027.9 |
| 20260906112812 | 14 | 90 | 0.0 | 0.0 | 0.00 | 0.10 | 0.00 | 93 | 1027.9 |
| 20260906111911 | 14 | 90 | 0.0 | 0.0 | 0.00 | 0.10 | 0.00 | 93 | 1028.0 |
| 20260906110912 | 14 | 110 | 0.0 | 0.0 | 0.00 | 0.10 | 0.00 | 93 | 1027.8 |
| 20260906105913 | 15 | 112 | 0.0 | 0.0 | 0.00 | 0.10 | 0.00 | 93 | 1027.5 |
| 20260906104927 | 15 | 112 | 0.0 | 0.0 | 0.00 | 0.10 | 0.00 | 93 | 1027.5 |
| 20260906104010 | 15 | 112 | 0.0 | 0.0 | 0.00 | 0.10 | 0.00 | 93 | 1027.2 |
| 20260906103013 | 15 | 112 | 0.0 | 0.0 | 0.00 | 0.10 | 0.00 | 92 | 1027.3 |
| 20260906095011 | 15 | 270 | 0.0 | 0.0 | 0.00 | 0.10 | 0.00 | 93 | 1027.2 |
| 20260906094027 | 15 | 201 | 0.0 | 0.0 | 0.00 | 0.10 | 0.00 | 94 | 1027.0 |
| 20260906093111 | 15 | 155 | 0.0 | 0.0 | 0.00 | 0.10 | 0.00 | 94 | 1027.1 |
| 20260906092113 | 15 | 175 | 0.0 | 0.0 | 0.00 | 0.10 | 0.00 | 94 | 1027.1 |
| 20260906091113 | 15 | 135 | 0.0 | 0.0 | 0.00 | 0.10 | 0.00 | 95 | 1027.1 |
| 20260906090210 | 15 | 93 | 0.0 | 0.0 | 0.00 | 0.10 | 0.00 | 95 | 1027.0 |
| 20260906084211 | 15 | 122 | 0.0 | 0.0 | 0.00 | 0.10 | 0.00 | 96 | 1027.2 |
| 20260906083211 | 15 | 135 | 0.0 | 0.0 | 0.00 | 0.10 | 0.00 | 96 | 1027.4 |
| 20260906082311 | 15 | 135 | 0.0 | 0.0 | 0.00 | 0.10 | 0.00 | 95 | 1027.1 |
| 20260906081312 | 15 | 135 | 0.0 | 0.0 | 0.00 | 0.13 | 0.00 | 96 | 1027.2 |
| 20260906080411 | 15 | 135 | 0.0 | 0.0 | 0.00 | 0.13 | 0.00 | 96 | 1027.2 |
| 20260906074512 | 15 | 112 | 0.0 | 0.0 | 0.00 | 0.13 | 0.00 | 96 | 1027.5 |
| 20260906072512 | 16 | 112 | 0.0 | 0.0 | 0.00 | 0.13 | 0.00 | 96 | 1027.7 |
| 20260906071512 | 16 | 112 | 0.0 | 0.0 | 0.00 | 0.13 | 0.00 | 96 | 1028.0 |
| 20260906070514 | 16 | 112 | 0.0 | 0.0 | 0.00 | 0.13 | 0.00 | 96 | 1027.8 |
| 20260906065511 | 16 | 157 | 0.0 | 0.0 | 0.00 | 0.13 | 0.00 | 95 | 1027.7 |
| 20260906063512 | 16 | 112 | 0.0 | 0.0 | 0.00 | 0.13 | 0.00 | 95 | 1027.5 |
| 20260906062511 | 16 | 135 | 0.0 | 0.0 | 0.00 | 0.13 | 0.00 | 94 | 1027.6 |
| 20260906060511 | 16 | 135 | 0.0 | 0.0 | 0.00 | 0.13 | 0.00 | 94 | 1027.5 |
| 20260906055512 | 16 | 139 | 0.0 | 0.0 | 0.00 | 0.13 | 0.00 | 94 | 1027.4 |
| 20260906054511 | 16 | 112 | 0.0 | 0.0 | 0.00 | 0.13 | 0.00 | 94 | 1027.7 |
| 20260906053511 | 16 | 112 | 0.0 | 0.0 | 0.00 | 0.15 | 0.00 | 93 | 1027.4 |
| 20260906052510 | 16 | 112 | 0.0 | 0.0 | 0.00 | 0.15 | 0.00 | 92 | 1027.7 |
| 20260906051511 | 16 | 112 | 0.0 | 0.0 | 0.00 | 0.15 | 0.00 | 93 | 1027.7 |
| 20260906050511 | 16 | 114 | 0.0 | 0.0 | 0.00 | 0.15 | 0.00 | 91 | 1027.6 |
| 20260906045519 | 16 | 112 | 0.0 | 0.0 | 0.00 | 0.15 | 0.15 | 92 | 1027.7 |
| 20260906043617 | 16 | 112 | 0.0 | 0.0 | 0.03 | 0.15 | 0.15 | 92 | 1027.9 |
| 20260906042618 | 16 | 112 | 0.0 | 0.0 | 0.03 | 0.15 | 0.15 | 92 | 1027.7 |
| 20260906041716 | 17 | 112 | 0.0 | 0.0 | 0.03 | 0.15 | 0.15 | 92 | 1027.9 |
| 20260906040718 | 16 | 117 | 0.0 | 0.0 | 0.03 | 0.15 | 0.15 | 92 | 1027.9 |
| 20260906035818 | 17 | 202 | 0.0 | 0.0 | 0.03 | 0.15 | 0.15 | 92 | 1028.2 |
| 20260906034917 | 17 | 166 | 0.0 | 0.0 | 0.03 | 0.15 | 0.15 | 93 | 1028.0 |
| 20260906033917 | 17 | 112 | 0.0 | 0.0 | 0.00 | 0.13 | 0.13 | 92 | 1027.9 |
| 20260906032917 | 17 | 112 | 0.0 | 0.0 | 0.00 | 0.13 | 0.13 | 92 | 1027.6 |
| 20260906031917 | 17 | 112 | 0.0 | 0.0 | 0.00 | 0.13 | 0.13 | 93 | 1027.6 |
| 20260906030916 | 17 | 142 | 0.0 | 0.0 | 0.00 | 0.15 | 0.13 | 93 | 1027.5 |
| 20260906025917 | 17 | 133 | 0.0 | 0.0 | 0.00 | 0.15 | 0.13 | 94 | 1027.3 |
| 20260906024918 | 17 | 112 | 0.0 | 0.0 | 0.00 | 0.15 | 0.13 | 94 | 1027.2 |
| 20260906023918 | 17 | 112 | 0.0 | 0.0 | 0.00 | 0.15 | 0.13 | 94 | 1026.9 |
| 20260906022917 | 17 | 112 | 0.0 | 0.0 | 0.00 | 0.15 | 0.13 | 94 | 1026.7 |
| 20260906021917 | 17 | 112 | 0.0 | 0.0 | 0.00 | 0.15 | 0.13 | 94 | 1026.6 |
| 20260906015917 | 17 | 115 | 0.0 | 0.0 | 0.00 | 0.15 | 0.13 | 93 | 1026.6 |
| 20260906014919 | 17 | 112 | 0.0 | 0.0 | 0.00 | 0.15 | 0.13 | 94 | 1026.3 |
| 20260906013917 | 17 | 67 | 0.0 | 0.0 | 0.00 | 0.15 | 0.13 | 94 | 1026.3 |
| 20260906012916 | 17 | 90 | 0.0 | 0.0 | 0.00 | 0.15 | 0.13 | 93 | 1026.2 |
| 20260906011917 | 17 | 112 | 0.0 | 0.0 | 0.00 | 0.15 | 0.13 | 93 | 1025.9 |
| 20260906010920 | 17 | 112 | 0.0 | 0.0 | 0.00 | 0.15 | 0.13 | 93 | 1026.1 |
| 20260906010017 | 17 | 112 | 0.0 | 0.0 | 0.00 | 0.18 | 0.13 | 93 | 1026.3 |
| 20260906005019 | 17 | 112 | 0.0 | 0.0 | 0.00 | 0.18 | 0.13 | 92 | 1026.3 |
| 20260906004017 | 17 | 112 | 0.0 | 0.0 | 0.00 | 0.18 | 0.13 | 92 | 1026.2 |
| 20260906003017 | 17 | 112 | 0.0 | 0.0 | 0.00 | 0.18 | 0.13 | 92 | 1026.1 |
| 20260906001118 | 17 | 138 | 0.0 | 0.0 | 0.00 | 0.18 | 0.13 | 91 | 1026.0 |
| 20260906000118 | 17 | 127 | 0.0 | 0.0 | 0.00 | 0.18 | 0.13 | 91 | 1025.9 |
| 20260905235118 | 18 | 116 | 0.0 | 0.0 | 0.00 | 0.18 | 0.13 | 92 | 1026.2 |
| 20260905234118 | 18 | 125 | 0.0 | 0.0 | 0.00 | 0.18 | 0.13 | 92 | 1026.1 |
| 20260905232217 | 18 | 112 | 0.0 | 0.0 | 0.00 | 0.18 | 0.13 | 91 | 1026.6 |
| 20260905230317 | 19 | 118 | 0.0 | 0.0 | 0.00 | 0.18 | 0.13 | 91 | 1026.5 |
| 20260905225317 | 19 | 154 | 0.0 | 0.0 | 0.00 | 0.18 | 0.13 | 90 | 1026.5 |
| 20260905224416 | 19 | 184 | 0.0 | 0.0 | 0.00 | 0.20 | 0.13 | 91 | 1026.5 |
| 20260905223418 | 19 | 112 | 0.0 | 0.0 | 0.00 | 0.20 | 0.13 | 91 | 1026.5 |
| 20260905222418 | 19 | 141 | 0.0 | 0.0 | 0.00 | 0.20 | 0.13 | 90 | 1026.6 |
| 20260905221516 | 19 | 172 | 0.0 | 0.0 | 0.00 | 0.20 | 0.13 | 91 | 1026.8 |
| 20260905220517 | 19 | 118 | 0.0 | 0.0 | 0.00 | 0.20 | 0.13 | 90 | 1026.6 |
| 20260905215517 | 19 | 112 | 0.0 | 0.0 | 0.00 | 0.20 | 0.13 | 90 | 1026.6 |
| 20260905214615 | 20 | 112 | 0.0 | 0.0 | 0.00 | 0.20 | 0.13 | 90 | 1026.8 |
| 20260905213616 | 20 | 157 | 0.0 | 0.0 | 0.03 | 0.20 | 0.13 | 90 | 1026.9 |
| 20260905211619 | 20 | 147 | 0.0 | 0.0 | 0.03 | 0.20 | 0.13 | 89 | 1027.4 |
| 20260905205718 | 20 | 119 | 0.0 | 0.0 | 0.03 | 0.23 | 0.13 | 89 | 1027.3 |
| 20260905204715 | 20 | 135 | 0.0 | 0.0 | 0.03 | 0.23 | 0.13 | 89 | 1027.3 |
| 20260905201716 | 20 | 112 | 0.0 | 0.0 | 0.00 | 0.20 | 0.10 | 90 | 1027.1 |
| 20260905195718 | 20 | 112 | 0.0 | 0.0 | 0.00 | 0.20 | 0.10 | 90 | 1027.5 |
| 20260905194815 | 19 | 147 | 0.0 | 0.0 | 0.00 | 0.20 | 0.10 | 91 | 1027.3 |
| 20260905192817 | 19 | 112 | 0.0 | 0.0 | 0.00 | 0.23 | 0.10 | 92 | 1027.5 |
| 20260905191915 | 19 | 112 | 0.0 | 0.0 | 0.00 | 0.23 | 0.10 | 92 | 1027.5 |